This is the latest recevied weather packets stored in our database for station/object OK2ILA-3. If no packets are shown the sender has not sent any weather packets the latest 10 day(s).
| Time | Temp. | Humidity | Pressure | Rain* | Wind** | Luminosity | Snow |
|---|---|---|---|---|---|---|---|
| 1778091385 | 17.22° C | 28% | 7 hPa | 0 mm | - | - | - |
| 1778090775 | 17.22° C | 6% | 3052.2 hPa | 0 mm | - | - | - |
| 1778090168 | 17.22° C | 28% | 4352 hPa | 0 mm | - | - | - |
| 1778089561 | 17.78° C | 55% | 4352 hPa | 0 mm | - | - | - |
| 1778088958 | 18.33° C | 51% | 0 hPa | 0 mm | - | - | - |
| 1778088351 | 18.33° C | 28% | 0 hPa | 0 mm | - | - | - |
| 1778087746 | 18.33° C | 12% | 0 hPa | 0 mm | - | - | - |
| 1778087141 | 18.33° C | 13% | 0 hPa | 0 mm | - | - | - |
| 1778086533 | 18.33° C | 100% | 0 hPa | 0 mm | - | - | - |
| 1778085926 | 18.89° C | 28% | 768 hPa | 0 mm | - | - | - |
| 1778084704 | 19.44° C | 100% | 204.8 hPa | 0 mm | - | - | - |
| 1778084100 | 18.89° C | 11% | 204.8 hPa | 0 mm | - | - | - |
| 1778083490 | 20° C | 100% | 2871.4 hPa | 0 mm | - | - | - |
| 1778082874 | 20° C | 82% | 8.9 hPa | 0 mm | - | - | - |
| 1778082267 | 20.56° C | 39% | 8.9 hPa | 0 mm | - | - | - |
| 1778081661 | 20° C | 5% | 33.6 hPa | 0 mm | - | - | - |
| 1778081050 | 20° C | 18% | 4352 hPa | 0 mm | - | - | - |
| 1778080447 | 19.44° C | 58% | 4352 hPa | 0 mm | - | - | - |
| 1778079839 | 20° C | 14% | 3871.4 hPa | 0 mm | - | - | - |
| 1778079232 | 20.56° C | 80% | 409.6 hPa | 0 mm | - | - | - |
| 1778078626 | 21.11° C | 100% | 409.6 hPa | 0 mm | - | - | - |
| 1778078021 | 20.56° C | 12% | 409.6 hPa | 0 mm | - | - | - |
| 1778077414 | 20° C | 58% | 409.6 hPa | 0 mm | - | - | - |
| 1778076810 | 20.56° C | - | - | 110.49 mm | - | - | - |
| 1778076205 | 20° C | 100% | 2713.8 hPa | 0 mm | - | - | - |
* Rain latest 24 hours (hover to see other rain measurements)
** Current wind speed in m/s (hover to see current wind gust speed)